CST,Max TemperatureF,Mean TemperatureF,Min TemperatureF,Max Dew PointF,MeanDew PointF,Min DewpointF,Max Humidity, Mean Humidity, Min Humidity, Max Sea Level PressureIn, Mean Sea Level PressureIn, Min Sea Level PressureIn, Max VisibilityMiles, Mean VisibilityMiles, Min VisibilityMiles, Max Wind SpeedMPH, Mean Wind SpeedMPH, Max Gust SpeedMPH,PrecipitationIn, CloudCover, Events, WindDirDegrees
2013-1-1,37,30,24,36,29,21,93,88,80,30.22,30.13,30.02,8,4,0,13,6,,0.00,8,,358
2013-1-2,33,27,21,23,19,18,93,74,52,30.24,30.21,30.16,10,8,4,8,3,,0.00,3,,236
2013-1-3,42,30,19,28,22,18,93,73,45,30.41,30.34,30.23,10,8,3,7,2,,0.00,2,,305
2013-1-4,46,34,21,25,22,16,100,66,37,30.45,30.38,30.30,10,9,5,10,3,16,0.00,1,,217
2013-1-5,42,35,28,32,27,19,87,70,60,30.30,30.23,30.16,10,10,9,14,6,18,0.00,6,,208
2013-1-6,44,34,24,28,22,18,93,66,34,30.35,30.29,30.21,10,10,3,14,5,17,0.00,0,,328
2013-1-7,51,38,24,27,22,16,80,60,35,30.33,30.23,30.10,10,10,10,14,5,20,0.00,0,,166
2013-1-8,57,42,26,45,32,19,93,70,48,30.21,30.10,30.04,10,8,3,13,5,17,0.14,4,,161
2013-1-9,53,50,46,46,42,36,93,74,54,30.33,30.26,30.20,10,8,1,24,8,36,0.07,5,,76
2013-1-10,57,52,46,54,45,37,94,83,62,30.21,29.96,29.81,10,10,3,18,12,28,0.04,7,,133
2013-1-11,66,54,42,45,43,39,87,66,43,29.88,29.81,29.73,10,10,10,21,11,30,0.00,1,,190
2013-1-12,57,44,30,48,36,27,87,75,41,29.93,29.87,29.76,10,10,4,25,10,29,0.42,7,,4
2013-1-13,30,24,17,27,18,12,86,79,69,30.31,30.14,29.94,10,10,10,15,11,21,0.09,5,,356
2013-1-14,33,24,15,16,12,9,86,63,35,30.42,30.33,30.28,10,10,10,12,5,16,0.00,1,,53
2013-1-15,33,25,17,21,15,9,86,67,38,30.28,30.20,30.12,10,10,10,9,5,,0.00,4,,40
2013-1-16,41,28,15,19,16,10,93,67,39,30.17,30.13,30.08,10,9,5,10,3,,0.00,0,,243
2013-1-17,48,36,24,30,24,16,86,64,43,30.46,30.35,30.18,10,10,10,13,5,18,0.00,0,,4
2013-1-18,55,39,23,28,24,19,86,62,31,30.49,30.35,30.20,10,10,10,17,6,22,0.00,0,,180
2013-1-19,62,50,37,34,30,25,75,50,34,30.19,30.14,30.07,10,10,10,17,10,23,0.00,0,,213
2013-1-20,60,44,28,34,27,16,81,53,31,30.25,30.19,30.11,10,10,10,16,6,20,0.00,0,,61
2013-1-21,37,29,21,18,13,10,69,54,35,30.37,30.30,30.24,10,10,10,12,9,18,0.00,0,,38
2013-1-22,46,34,21,23,18,12,74,57,39,30.29,30.24,30.18,10,10,10,12,6,16,0.00,1,,151
2013-1-23,60,43,26,41,31,19,86,67,45,30.25,30.19,30.13,10,10,10,10,5,,0.00,1,,184
2013-1-24,42,38,33,30,20,14,81,48,38,30.29,30.21,30.09,10,10,5,16,11,23,0.00,8,,82
2013-1-25,48,39,30,30,28,27,93,71,46,30.24,30.16,30.08,10,7,1,7,4,,0.00,4,,32
2013-1-26,60,48,35,28,23,19,70,43,20,30.25,30.20,30.14,10,10,10,14,6,17,0.00,2,,119
2013-1-27,59,52,46,54,42,30,82,70,53,30.11,30.04,29.93,10,10,10,20,13,26,0.00,7,,164
2013-1-28,71,65,59,59,57,54,82,73,60,29.96,29.90,29.84,10,10,10,22,14,28,0.00,7,,189
2013-1-29,66,56,46,61,51,43,94,88,77,29.71,29.52,29.47,10,9,4,18,10,31,1.05,7,Thunderstorm,119
2013-1-30,46,35,24,45,26,18,93,77,64,30.03,29.78,29.51,10,9,2,22,13,29,0.00,7,,295
2013-1-31,46,34,19,27,20,9,86,67,46,30.39,30.14,29.98,10,10,5,18,6,24,0.00,2,,297